Weather History for Montreal, QC

Change the Weather History Date:

Sunday, November 20, 2011

  Actual Average Record
Temperature  
Mean Temperature 44 °F -  
Max Temperature 55 °F 39 °F 55 °F (2011)
Min Temperature 32 °F 27 °F 21 °F (2008)
Degree Days  
Heating Degree Days 21    
Moisture  
Dew Point 33 °F    
Average Humidity 63    
Maximum Humidity 82    
Minimum Humidity 43    
Precipitation  
Precipitation 0.04 in - - ()
Sea Level Pressure  
Sea Level Pressure 29.95 in    
Wind  
Wind Speed 17 mph ()    
Max Wind Speed 85 mph    
Max Gust Speed 38 mph    
Visibility 14.8 miles    
Events Rain    
Averages and records for this station are not official NWS values.
T = Trace of Precipitation, MM = Missing Value Source: Averaged Metar Reports

Daily Weather History Graph

Daily Weather History Graph

Search for Another Location

Airport:

Trip Planner

Search our weather history database for the weather conditions in past years. The results will help you decide how hot, cold, wet, or windy it might be!

Date:

Astronomy

Nov. 20, 2011 Rise Set
Actual Time 7:00 AM EST 4:20 PM EST
Civil Twilight 6:27 AM EST 4:52 PM EST
Nautical Twilight 5:51 AM EST 5:29 PM EST
Astronomical Twilight 5:16 AM EST 6:04 PM EST
Moon 1:11 AM EST (11/20) 1:20 PM EST (11/20)
Length of Visible Light 10h 25m
Length of Day
9h 20m
Waning Crescent, 27% of the Moon is Illuminated
Nov 20
Waning Crescent
Nov 25
New
Dec 2
First Quarter
Dec 10
Full
Dec 17
Last Quarter

Hourly Weather History & Observations

Time (EST) Temp. Windchill Dew Point Humidity Pressure Visibility Wind Dir Wind Speed Gust Speed Precip Events Conditions
12:00 AM 46.4 °F 41.5 °F 32.0 °F 57% 29.95 in 15.0 mi SSE 10.4 mph - N/A   Overcast
1:00 AM 46 °F - 31 °F 43% 29.92 in 15 mi South 85.2 mph - -   Partly Cloudy
1:00 AM 46.4 °F 40.4 °F 30.2 °F 53% 29.92 in 15.0 mi South 13.8 mph - N/A   Overcast
2:00 AM 44.6 °F 39.2 °F 32.0 °F 61% 29.90 in 15.0 mi SSE 10.4 mph - N/A Rain Light Rain
3:00 AM 44.6 °F 38.8 °F 32.0 °F 61% 29.85 in 15.0 mi SSE 11.5 mph - N/A   Overcast
3:14 AM 44.6 °F 38.4 °F - N/A% - 15.0 mi SSE 12.7 mph - N/A Rain Light Rain
4:00 AM 42.8 °F 36.2 °F 33.8 °F 70% 29.81 in 15.0 mi SSE 12.7 mph - N/A   Overcast
5:00 AM 44.6 °F 38.4 °F 33.8 °F 66% 29.77 in 15.0 mi SSE 12.7 mph - N/A   Overcast
6:00 AM 46.4 °F 41.1 °F 35.6 °F 66% 29.75 in 15.0 mi South 11.5 mph - N/A   Overcast
6:33 AM 46.4 °F 41.1 °F - N/A% - 15.0 mi South 11.5 mph - N/A Rain Light Rain Showers
7:00 AM 48.2 °F - 39.2 °F 71% 29.75 in 15.0 mi South 9.2 mph - N/A Rain Light Rain
7:35 AM 53.6 °F - - N/A% - 15.0 mi SW 20.7 mph 27.6 mph N/A   Overcast
8:00 AM 53.6 °F - 41.0 °F 62% 29.75 in 15.0 mi SW 23.0 mph 31.1 mph N/A   Overcast
9:00 AM 53.6 °F - 42.8 °F 67% 29.76 in 15.0 mi SW 24.2 mph 29.9 mph N/A   Overcast
9:35 AM 55.4 °F - - N/A% - 15.0 mi SW 23.0 mph 38.0 mph N/A Rain Light Rain Showers
10:00 AM 55.4 °F - 42.8 °F 63% 29.77 in 15.0 mi WSW 23.0 mph 31.1 mph N/A   Overcast
10:18 AM 55.4 °F - - N/A% - 15.0 mi WSW 24.2 mph 33.4 mph N/A Rain Light Rain Showers
11:00 AM 51.8 °F - 46.4 °F 82% 29.82 in 8.0 mi West 11.5 mph 21.9 mph N/A Rain Light Rain Showers
11:40 AM 51.8 °F - - N/A% - 15.0 mi West 13.8 mph 19.6 mph N/A   Overcast
11:53 AM 51.8 °F - - N/A% - 15.0 mi West 16.1 mph - N/A Rain Light Rain Showers
12:00 PM 51.8 °F - 46.4 °F 82% 29.84 in 15.0 mi NW 19.6 mph 25.3 mph N/A Rain Light Rain Showers
12:25 PM 50.0 °F - - N/A% - 15.0 mi NW 13.8 mph 20.7 mph N/A   Mostly Cloudy
1:00 PM 48 °F - 39 °F 63% 29.89 in 15 mi NW 8.1 mph - - Rain Light Rain Showers
1:00 PM 48.2 °F - 39.2 °F 71% 29.89 in 15.0 mi NW 8.1 mph - N/A   Mostly Cloudy
3:00 PM 46.4 °F 41.9 °F 35.6 °F 66% 29.99 in 30.0 mi WNW 9.2 mph 18.4 mph N/A   Mostly Cloudy
4:00 PM 44.6 °F 38.8 °F 30.2 °F 57% 30.03 in 30.0 mi NW 11.5 mph 17.3 mph N/A   Partly Cloudy
5:00 PM 41.0 °F 33.9 °F 30.2 °F 65% 30.08 in 15.0 mi WNW 12.7 mph - N/A   Partly Cloudy
6:00 PM 39.2 °F 32.0 °F 28.4 °F 65% 30.13 in 15.0 mi NW 11.5 mph 17.3 mph N/A   Partly Cloudy
7:00 PM 36 °F - 26 °F 55% 30.17 in 15 mi NNW 6.9 mph - -   Mostly Cloudy
7:00 PM 37.4 °F 31.4 °F 26.6 °F 65% 30.17 in 15.0 mi NNW 8.1 mph - N/A   Mostly Cloudy
8:00 PM 35.6 °F 28.0 °F 23.0 °F 60% 30.20 in 15.0 mi North 10.4 mph - N/A   Mostly Cloudy
9:00 PM 35.6 °F 29.9 °F 21.2 °F 56% 30.22 in 15.0 mi North 6.9 mph - N/A   Mostly Cloudy
10:00 PM 33.8 °F 27.0 °F 19.4 °F 56% 30.23 in 15.0 mi North 8.1 mph - N/A   Mostly Cloudy
11:00 PM 32.0 °F 23.6 °F 19.4 °F 60% 30.27 in 15.0 mi North 10.4 mph - N/A   Mostly Cloudy